Wind_Speed
6 7 8 9 11 13 13 13 13 12 12 12 12 12 13 15 16 16 17 17 17 17 18 20 21 21 22 23 24 24 23 23 23 22 21 20 19 17 16 16 15 14 12 11
5 6 7 9 10 11 12 13 14 14 13 13 12 12 13 14 16 16 16 17 17 18 18 19 20 21 22 23 24 24 24 24 23 23 23 21 20 18 18 17 17 16 15 14
4 5 6 7 9 10 11 12 13 14 14 13 13 13 13 14 15 16 16 17 17 18 18 19 20 21 22 23 24 25 25 25 25 25 24 23 22 20 19 19 19 18 17 15
2 3 5 6 8 9 10 11 12 13 14 14 14 13 13 13 14 15 16 16 16 17 17 18 19 20 22 23 24 25 25 26 26 26 26 25 23 22 22 22 21 20 19 18
2 3 5 6 7 8 9 10 11 12 13 14 15 14 13 13 13 14 15 15 16 16 16 17 19 20 21 22 24 24 25 27 28 28 27 26 25 24 24 24 23 23 22 21
4 5 6 6 7 8 9 10 11 12 12 14 14 14 14 13 13 14 14 14 14 15 15 16 17 18 20 21 22 24 25 27 28 28 29 28 27 26 25 25 25 25 25 24
7 7 7 7 8 8 9 10 11 11 12 13 14 14 14 13 13 13 13 13 13 13 14 15 16 17 18 20 21 22 23 25 27 28 29 29 28 27 27 26 26 26 27 26
11 11 11 10 10 10 10 11 11 12 12 12 13 14 14 14 14 13 13 13 13 13 13 13 14 15 17 18 20 21 22 23 25 27 28 29 29 28 28 27 27 27 28 27
14 14 13 13 13 13 13 13 12 13 13 13 13 14 14 14 14 14 14 14 13 13 13 13 14 15 16 17 18 20 21 22 23 25 27 28 29 29 28 28 27 27 28 28
17 17 15 15 16 16 16 16 15 15 15 14 14 14 15 15 15 15 15 15 14 14 14 14 14 15 15 16 17 18 19 20 21 23 25 26 27 28 28 28 27 27 28 28
19 19 18 17 18 18 19 19 19 18 18 17 17 16 16 17 17 16 16 16 16 15 15 15 15 16 16 16 17 17 18 18 19 20 21 23 25 26 27 28 27 27 27 27
19 20 20 20 20 20 21 21 21 21 21 20 19 19 18 19 19 19 18 18 17 17 16 16 16 16 16 16 16 17 17 17 18 18 19 20 21 23 24 26 26 25 25 26
22 23 23 23 23 23 23 23 24 24 24 23 23 22 21 21 21 21 21 20 20 19 18 17 17 17 17 17 16 16 16 16 16 17 17 17 18 20 21 22 24 24 24 23
28 27 27 28 28 28 27 27 27 27 27 27 26 26 25 24 24 23 23 23 22 22 21 20 19 18 18 17 17 16 16 16 16 15 16 16 16 16 17 18 20 21 22 21
33 33 33 33 33 33 32 32 31 31 31 31 30 30 29 28 27 26 27 26 26 25 24 23 22 22 20 19 18 17 17 16 16 15 15 14 14 14 14 15 16 17 18 19
38 39 39 40 39 39 39 38 37 36 36 36 35 35 34 33 31 30 30 30 29 28 28 27 26 25 24 22 21 20 19 17 17 16 15 14 14 13 13 12 12 13 14 15
42 43 45 46 46 46 45 45 44 43 42 41 41 40 39 38 36 35 35 35 33 31 31 31 30 29 27 26 25 23 21 20 19 17 16 15 14 14 13 12 10 9 9 10
46 47 48 49 50 51 51 51 50 50 49 48 47 46 45 44 42 40 39 39 38 35 34 35 35 33 31 29 28 27 25 23 22 20 19 17 16 15 14 13 11 10 8 7
47 47 48 49 50 52 53 53 54 54 54 54 53 52 51 50 48 46 45 44 43 40 38 39 38 36 34 33 32 31 29 27 26 24 22 20 19 18 16 15 14 12 10 9
44 45 45 47 48 50 51 53 54 55 56 56 56 56 55 54 53 52 51 49 47 46 45 44 43 41 39 37 36 34 33 31 30 28 26 24 22 21 19 18 17 15 14 12
41 42 43 44 45 47 48 50 51 53 54 55 56 56 57 57 56 56 55 54 52 51 51 50 48 46 43 42 40 38 37 35 33 32 30 28 26 24 23 21 20 19 18 16
42 43 44 46 46 48 49 50 51 52 54 55 56 56 57 57 58 58 58 58 56 56 55 54 52 50 49 47 45 43 41 39 37 36 34 32 30 29 27 25 24 22 21 20
45 47 48 49 50 51 52 53 54 55 56 57 58 58 59 59 60 60 60 60 60 59 59 58 57 56 54 53 51 48 45 43 41 40 38 36 35 33 31 29 27 25 24 23
49 51 52 54 55 56 57 58 58 59 60 61 61 62 62 62 62 63 63 63 63 63 63 62 62 61 59 58 56 53 50 48 45 44 42 41 39 37 35 33 31 29 28 26
53 54 56 57 58 60 61 62 63 63 64 64 64 65 65 65 64 64 64 64 64 64 64 65 65 65 64 63 61 59 56 53 51 49 47 45 43 41 39 37 35 33 32 30
56 57 58 60 61 62 64 65 66 67 67 67 67 67 66 66 65 64 63 63 64 64 64 65 66 67 67 67 65 63 61 59 57 54 52 50 48 46 44 42 40 38 36 34
58 59 61 62 64 65 66 67 68 69 69 69 68 68 67 66 65 64 63 62 61 62 62 63 65 66 68 69 69 68 66 65 63 60 58 55 53 50 48 46 45 43 41 39
Wind_Direction
68 54 49 46 45 44 42 41 38 33 28 25 23 22 22 21 21 21 20 19 18 17 18 19 18 18 18 18 18 18 18 17 16 14 12 10 8 5 1 357 352 347 339 330
62 45 37 37 39 40 38 37 35 32 29 25 24 22 21 22 22 22 20 20 20 20 20 21 20 20 20 21 20 19 19 19 17 15 13 11 8 5 2 358 353 347 340 331
46 27 22 21 26 31 33 32 29 27 25 22 21 21 21 21 21 20 20 20 21 23 22 22 22 21 21 21 20 19 20 19 18 17 15 13 11 8 5 1 356 351 344 335
32 14 2 10 11 18 24 25 24 22 20 19 19 19 19 18 18 19 19 20 21 21 22 22 21 21 21 21 20 19 19 19 19 17 16 15 13 11 8 3 360 356 350 341
346 342 343 355 356 0 5 10 11 12 11 11 15 18 17 16 17 16 16 17 18 19 20 21 21 20 20 19 18 18 19 19 19 18 17 15 14 12 10 7 4 360 355 349
300 309 317 333 337 342 348 352 354 358 0 1 4 8 9 10 10 11 11 11 14 17 19 19 18 18 17 16 15 16 17 18 18 18 17 17 15 13 11 9 7 4 1 357
285 290 298 308 314 322 327 335 339 342 346 348 352 356 359 360 359 359 0 4 7 10 12 13 13 13 13 12 13 13 14 16 17 17 16 16 15 15 14 12 11 9 8 5
279 283 288 294 299 307 313 319 323 326 331 334 337 341 346 349 350 349 349 352 356 358 360 1 3 4 5 7 9 10 11 13 14 15 15 16 16 16 16 16 14 13 13 12
271 274 280 287 293 297 301 307 311 314 318 320 322 325 329 333 336 338 340 342 344 346 346 346 348 351 354 356 360 3 6 7 9 11 13 14 15 16 17 18 17 17 18 18
270 273 278 283 287 291 295 300 302 304 306 309 310 312 314 317 321 325 328 330 333 334 334 335 335 338 340 343 347 352 356 360 3 6 8 11 14 16 18 19 20 20 21 22
276 281 284 285 286 290 293 294 295 296 298 300 301 303 304 305 307 310 314 318 320 323 324 326 326 326 330 332 335 339 344 350 355 359 3 7 11 14 17 19 21 23 25 26
277 281 284 285 286 287 288 289 290 291 292 293 295 297 298 298 299 300 301 304 307 310 313 314 316 319 321 324 326 329 333 338 344 350 356 1 5 10 15 18 21 24 27 30
277 278 280 281 281 281 282 284 286 287 288 289 290 291 292 293 294 294 294 295 296 298 299 302 305 307 312 316 318 320 323 327 333 340 346 352 358 5 11 16 20 24 28 32
275 276 277 278 280 281 282 283 284 285 285 286 287 288 288 289 289 289 289 289 289 289 290 292 294 296 299 303 306 310 313 317 321 327 334 340 347 356 4 10 16 21 27 32
274 275 276 276 277 278 278 279 280 282 283 284 284 284 285 286 287 287 286 286 285 285 285 286 286 287 289 291 294 297 302 306 309 313 318 325 333 341 350 0 8 16 23 30
270 273 274 275 275 275 276 277 277 277 278 280 281 281 282 282 283 284 284 283 283 283 283 282 281 281 283 284 285 287 290 293 297 300 303 309 316 323 331 342 353 4 15 24
265 267 269 271 273 273 274 274 274 275 275 276 276 277 278 278 279 279 280 280 281 281 281 280 278 278 279 280 280 280 281 282 285 288 291 294 298 304 311 319 328 340 356 9
265 265 266 267 269 271 273 274 274 274 274 274 274 274 275 275 275 275 275 276 277 278 278 277 277 277 277 277 277 276 276 276 276 277 279 282 284 287 292 297 303 309 318 335
266 266 266 267 268 269 270 272 273 274 275 275 274 274 274 273 273 272 272 272 273 273 273 273 274 274 274 273 273 273 273 272 272 271 271 272 273 275 277 279 282 285 289 292
268 269 270 270 270 271 271 272 273 273 274 275 275 275 274 273 272 271 270 269 269 269 268 268 269 270 271 271 271 271 270 270 269 268 268 267 267 267 267 268 269 271 272 273
273 274 274 274 274 274 275 275 275 275 276 276 276 276 275 274 272 271 270 268 266 265 265 265 266 267 267 267 267 267 267 267 266 266 265 264 264 263 262 262 262 263 263 263
279 280 280 280 279 279 279 279 279 278 278 278 277 277 276 275 273 272 270 268 265 263 262 262 262 262 262 263 263 263 264 264 264 263 262 262 261 261 260 259 258 258 258 259
283 283 284 284 283 283 283 282 281 281 280 279 279 278 277 276 274 272 269 268 266 263 261 259 258 257 257 258 259 259 260 260 260 260 260 259 259 258 258 257 257 256 255 255
285 285 285 285 285 285 285 285 284 283 282 282 281 279 278 276 275 273 271 268 265 263 260 258 256 255 254 254 254 255 255 256 256 256 257 256 256 255 255 255 255 254 254 254
286 286 287 287 287 287 287 286 286 285 285 284 283 281 280 278 276 274 271 269 267 264 260 257 255 253 252 251 251 251 251 251 252 252 253 253 253 253 253 252 252 252 253 253
287 287 287 288 288 288 288 288 288 287 287 286 285 284 282 280 278 276 273 270 266 264 261 258 254 252 250 249 248 248 247 248 248 249 249 250 250 251 251 251 251 251 251 251
288 288 289 290 290 290 290 290 290 289 288 287 286 285 284 282 279 277 274 271 267 263 260 257 254 251 249 247 246 245 245 245 245 246 246 247 248 248 249 249 249 250 250 251
Height
5899 5897 5895 5893 5890 5887 5885 5882 5879 5877 5873 5870 5867 5864 5860 5857 5853 5850 5846 5843 5839 5835 5831 5826 5822 5818 5813 5808 5804 5799 5794 5789 5784 5779 5775 5770 5766 5762 5758 5754 5751 5747 5744 5742
5899 5897 5896 5894 5891 5888 5886 5883 5880 5877 5874 5871 5868 5864 5861 5858 5854 5851 5847 5844 5840 5836 5832 5828 5824 5819 5815 5810 5805 5800 5795 5790 5785 5780 5776 5771 5766 5762 5758 5754 5750 5746 5742 5739
5899 5897 5896 5894 5892 5889 5886 5884 5881 5878 5875 5871 5868 5865 5862 5858 5855 5852 5848 5845 5841 5837 5833 5829 5825 5821 5817 5812 5807 5802 5797 5792 5787 5782 5777 5771 5767 5762 5757 5753 5748 5744 5740 5736
5898 5898 5896 5896 5892 5889 5887 5884 5881 5878 5875 5872 5869 5866 5862 5859 5856 5853 5849 5846 5842 5838 5835 5831 5827 5823 5818 5814 5809 5804 5799 5794 5788 5783 5778 5773 5767 5762 5757 5752 5747 5742 5738 5733
5897 5896 5895 5894 5891 5888 5886 5884 5881 5878 5876 5872 5869 5866 5863 5859 5856 5853 5850 5847 5843 5839 5836 5832 5828 5824 5820 5816 5811 5806 5801 5796 5790 5785 5779 5774 5768 5763 5758 5752 5747 5741 5736 5730
5896 5894 5893 5893 5890 5888 5886 5883 5881 5878 5875 5872 5869 5866 5864 5860 5856 5853 5850 5847 5844 5840 5837 5833 5829 5825 5821 5817 5813 5808 5803 5798 5792 5787 5781 5775 5770 5764 5758 5753 5747 5741 5734 5728
5893 5892 5891 5890 5888 5887 5886 5884 5880 5877 5875 5872 5869 5866 5864 5860 5857 5854 5851 5848 5844 5841 5837 5834 5830 5827 5823 5819 5814 5810 5805 5800 5794 5789 5783 5777 5771 5766 5760 5754 5747 5741 5734 5727
5889 5888 5889 5886 5884 5884 5883 5880 5878 5876 5874 5871 5868 5866 5863 5860 5857 5854 5851 5848 5844 5841 5838 5834 5831 5827 5824 5820 5816 5811 5806 5802 5796 5791 5786 5780 5774 5768 5761 5755 5749 5742 5736 5729
5885 5886 5884 5882 5881 5880 5878 5877 5875 5873 5871 5869 5867 5864 5861 5859 5856 5853 5850 5847 5843 5840 5837 5834 5831 5828 5824 5820 5816 5812 5808 5803 5798 5793 5788 5782 5776 5770 5764 5757 5751 5745 5738 5731
5879 5879 5879 5878 5876 5875 5874 5872 5871 5869 5867 5866 5864 5861 5859 5856 5854 5851 5848 5845 5842 5839 5836 5833 5830 5827 5824 5820 5816 5813 5808 5804 5800 5795 5790 5785 5779 5773 5767 5760 5754 5748 5742 5735
5874 5874 5874 5873 5871 5870 5869 5867 5866 5864 5863 5861 5859 5857 5855 5853 5850 5848 5845 5843 5840 5837 5835 5832 5829 5826 5823 5819 5816 5812 5809 5805 5801 5796 5792 5787 5782 5776 5770 5764 5758 5752 5746 5740
5870 5869 5868 5867 5866 5865 5863 5862 5860 5859 5857 5855 5854 5852 5850 5848 5846 5844 5842 5839 5837 5834 5832 5829 5827 5824 5821 5818 5815 5811 5808 5804 5801 5797 5793 5789 5784 5779 5774 5768 5762 5756 5751 5745
5863 5862 5861 5860 5859 5858 5857 5855 5854 5852 5851 5849 5848 5846 5844 5843 5841 5839 5837 5835 5832 5830 5828 5826 5824 5821 5818 5815 5812 5809 5806 5803 5800 5797 5793 5789 5785 5781 5776 5772 5766 5761 5755 5750
5854 5854 5853 5852 5851 5850 5849 5848 5846 5845 5843 5842 5841 5839 5838 5836 5835 5833 5831 5829 5827 5825 5823 5821 5819 5817 5814 5812 5809 5807 5804 5801 5798 5795 5792 5789 5786 5782 5778 5774 5770 5765 5760 5755
5844 5844 5844 5843 5842 5841 5840 5839 5838 5837 5835 5834 5833 5832 5830 5829 5828 5826 5824 5823 5821 5819 5817 5815 5814 5811 5809 5807 5805 5803 5801 5798 5796 5793 5791 5788 5785 5782 5779 5776 5772 5768 5764 5760
5835 5833 5832 5831 5831 5830 5829 5829 5828 5827 5826 5825 5824 5823 5822 5821 5820 5819 5817 5815 5814 5813 5811 5809 5807 5805 5804 5802 5800 5798 5796 5794 5792 5790 5788 5786 5783 5781 5778 5776 5773 5770 5767 5763
5824 5823 5821 5819 5818 5817 5816 5816 5816 5815 5815 5814 5813 5812 5812 5811 5810 5809 5808 5806 5806 5805 5803 5801 5800 5798 5797 5796 5794 5792 5791 5789 5787 5786 5784 5782 5780 5778 5776 5774 5772 5770 5768 5765
5810 5809 5808 5806 5805 5804 5802 5802 5801 5801 5801 5801 5800 5800 5799 5799 5799 5799 5797 5796 5796 5796 5795 5792 5791 5790 5790 5788 5787 5786 5785 5783 5782 5780 5779 5777 5776 5775 5773 5772 5770 5768 5767 5765
5794 5794 5793 5792 5791 5790 5789 5788 5787 5785 5785 5784 5785 5785 5785 5785 5785 5785 5785 5784 5784 5784 5784 5781 5781 5780 5780 5779 5778 5778 5777 5776 5775 5774 5773 5772 5771 5770 5769 5767 5766 5765 5764 5763
5779 5779 5778 5778 5777 5775 5774 5773 5772 5770 5769 5768 5768 5768 5768 5768 5769 5769 5770 5770 5771 5771 5770 5769 5768 5769 5769 5769 5768 5768 5768 5768 5767 5766 5766 5765 5764 5764 5763 5762 5762 5761 5760 5760
5765 5765 5764 5763 5762 5760 5758 5757 5756 5754 5753 5751 5750 5750 5750 5750 5750 5751 5752 5754 5755 5754 5754 5755 5755 5756 5756 5756 5756 5757 5757 5758 5758 5758 5757 5757 5757 5756 5756 5756 5755 5755 5755 5755
5750 5749 5748 5747 5746 5744 5743 5741 5739 5738 5736 5734 5733 5732 5731 5731 5731 5731 5731 5733 5735 5736 5737 5738 5739 5740 5741 5741 5742 5744 5745 5746 5747 5747 5747 5747 5747 5748 5748 5748 5748 5748 5748 5748
5735 5733 5732 5730 5728 5727 5725 5723 5721 5719 5717 5716 5714 5713 5712 5711 5710 5710 5711 5711 5712 5714 5717 5719 5720 5722 5723 5724 5726 5729 5731 5732 5734 5735 5736 5737 5737 5738 5738 5739 5739 5740 5740 5740
5719 5717 5715 5713 5711 5709 5707 5704 5702 5700 5698 5696 5693 5692 5691 5690 5689 5687 5688 5688 5689 5691 5693 5696 5699 5701 5703 5706 5709 5711 5714 5716 5719 5721 5722 5724 5725 5726 5727 5728 5729 5730 5731 5732
5704 5701 5698 5696 5693 5690 5687 5684 5682 5679 5676 5674 5671 5669 5667 5666 5665 5664 5664 5664 5664 5666 5669 5672 5675 5679 5682 5685 5689 5692 5695 5699 5701 5704 5706 5709 5711 5713 5715 5716 5718 5719 5721 5722
5687 5684 5681 5678 5674 5671 5667 5664 5660 5657 5654 5651 5647 5644 5642 5640 5639 5638 5638 5639 5639 5640 5642 5645 5649 5653 5657 5662 5666 5671 5675 5678 5682 5686 5689 5692 5695 5698 5701 5703 5705 5707 5709 5710
5670 5666 5663 5659 5655 5651 5646 5642 5638 5633 5629 5626 5623 5620 5617 5615 5613 5612 5612 5612 5613 5614 5616 5619 5622 5626 5630 5636 5642 5647 5652 5657 5661 5665 5670 5674 5678 5681 5685 5688 5690 5693 5695 5697